Location: Banff
(51.1667°N, 115.5667°W)
Time: 10:35:45
(UTC+00:00)

SR - Pass Details

Date: 02 December 2020
Orbit: 575 x 880 km, 66.7° (Epoch: 19 January)

Event Time Altitude Azimuth Distance (km) Brightness Sun altitude
Rises 03:54:39 0° 270° (W) 2,897 ? -39.2°
Reaches altitude 10° 03:57:24 10° 288° (WNW) 2,039 ? -39.6°
Enters shadow 03:58:00 12° 294° (WNW) 1,887 ? -39.7°
